Flag for Austria Past Weather in Feldkirchen in Kärnten, Carinthia, Austria — Yesterday and Last 2 Weeks

Now
53 °F

Passing clouds.


Feels Like: N/A
Forecast: 41 / 65 °F
Wind: N/A

Location: Klagenfurt-Flughafen

Current Time: Sep 28, 2016 at 12:35:53 AM

Latest Report: Sep 28, 2016 at 12:00 AM


Visibility: 7 mi

Pressure: 30.40 "Hg (28.49 "Hg at 541m altitude)

Humidity: 89%

Dew Point: 50 °F

Location of Feldkirchen in KärntenLocation

Past Weather in Feldkirchen in Kärnten — Graph

°F

Feldkirchen in Kärnten Temperature Yesterday

Maximum temperature yesterday: 69 °F (at 4:00 PM)
Minimum temperature yesterday: 47 °F (at 6:00 AM)
Average temperature yesterday: 57 °F

High & Low Weather Summary for the Past Weeks

 TemperatureHumidityPressure
High80 °F (Sep 13, 5:00 PM)96% (Sep 16, 5:00 AM)30.39 "Hg (Sep 16, 5:00 AM)
Low43 °F (Sep 23, 7:00 AM)36% (Sep 22, 4:00 PM)29.78 "Hg (Sep 17, 6:00 AM)
Average60 °F77%30.06 "Hg
* Reported Sep 12 11:00 PM — Sep 27 11:00 PM, Feldkirchen in Kärnten, Weather by CustomWeather, © 2016

Note: Actual official high and low records may vary slightly from our data, if they occured in-between our weather recording intervals... More about our weather records

Advertising

Feldkirchen in Kärnten Weather History for the Previous 24 Hours

Scroll right to see more
 ConditionsComfort  
Time TempWeatherWind HumidityBarometerVisibility
11:00 PM
Tue, Sep 27
54 °FPassing clouds.N/A88%30.39 "Hg9 mi
10:00 PM56 °FPassing clouds.N/A85%30.37 "Hg12 mi
8:00 PM59 °FOvercast.N/A75%30.32 "Hg16 mi
7:00 PM62 °FPassing clouds.N/A62%30.28 "Hg2 mi
6:00 PM67 °FPassing clouds.N/A53%30.24 "Hg6 mi
5:00 PM68 °FPassing clouds.N/A55%30.23 "Hg7 mi
4:00 PM69 °FPassing clouds.N/A52%30.22 "Hg7 mi
3:00 PM68 °FPassing clouds.N/A53%30.23 "Hg12 mi
2:00 PM66 °FPassing clouds.N/A58%30.24 "Hg14 mi
1:00 PM65 °FPassing clouds.N/A60%30.25 "Hg13 mi
12:00 PM62 °FPassing clouds.N/A67%30.27 "Hg10 mi
11:00 AM58 °FPassing clouds.N/A71%30.28 "Hg12 mi
10:00 AM54 °FLow clouds.N/A79%30.29 "Hg12 mi
9:00 AM51 °FLow clouds.N/A88%30.29 "Hg9 mi
8:00 AM49 °FLow clouds.N/A91%30.29 "Hg9 mi
7:00 AM47 °FLow clouds.N/A93%30.27 "Hg8 mi
6:00 AM47 °FOvercast.N/A94%30.26 "Hg6 mi
5:00 AM47 °FCool.N/A94%30.26 "Hg6 mi
4:00 AM48 °FPassing clouds.N/A93%30.25 "Hg6 mi
3:00 AM49 °FCool.N/A93%30.25 "Hg6 mi
2:00 AM50 °FCool.N/A91%30.25 "Hg7 mi
1:00 AM51 °FPassing clouds.N/A90%30.24 "Hg10 mi
12:00 AM52 °FPassing clouds.N/A89%30.23 "Hg9 mi
Weather by CustomWeather, © 2016

See weather overviewHow to use our weather pages